{"data":{"norad_id":63150,"epoch":"2026-05-25T03:13:04.503360Z","epoch_age_seconds":59618,"freshness":"FRESH","line1":"1 63150U 25043U   26145.13407990  .00009084  00000+0  33915-3 0  9994","line2":"2 63150  43.0001 304.5012 0001237 275.3538  84.7172 15.27587239 69054","mean_motion":15.27587239,"eccentricity":0.0001237,"inclination_deg":43.0001,"raan_deg":304.5012,"arg_perigee_deg":275.3538,"mean_anomaly_deg":84.7172,"bstar":0.00033915,"rev_number":6905,"period_min":94.266301998088,"perigee_km":482.17869391629,"apogee_km":483.87614599379,"semimajor_km":6861.164419955,"source":"CELESTRAK","updated_at":"2026-05-25T13:38:19.917708Z"}}